Time,TemperatureF,DewpointF,PressureIn,WindDirection,WindDirectionDegrees,WindSpeedMPH,WindSpeedGustMPH,Humidity,HourlyPrecipIn,Conditions,Clouds,dailyrainin,SolarRadiationWatts/m^2,SoftwareType,DateUTC
2013-01-30 00:03:00,53.5,53.0,29.41,WNW,295,1.5,1.5,97,0.12,,,0.01,0,TxWx,2013-01-30 06:03:00,
2013-01-30 00:08:00,53.5,52.0,29.41,NW,316,3.6,3.6,97,0.12,,,0.02,0,TxWx,2013-01-30 06:08:00,
2013-01-30 00:13:00,53.4,52.0,29.40,West,274,3.3,3.3,97,0.12,,,0.02,0,TxWx,2013-01-30 06:13:00,
2013-01-30 00:18:00,53.4,52.0,29.40,WNW,290,0.9,0.9,97,0.12,,,0.03,0,TxWx,2013-01-30 06:18:00,
2013-01-30 00:24:00,53.3,52.0,29.40,West,259,0.6,0.9,97,0.12,,,0.04,0,TxWx,2013-01-30 06:24:00,
2013-01-30 00:29:00,53.3,52.0,29.40,SW,214,1.8,1.8,97,0.12,,,0.05,0,TxWx,2013-01-30 06:29:00,
2013-01-30 00:34:00,53.3,52.0,29.40,SSW,201,1.2,1.2,97,0.06,,,0.06,0,TxWx,2013-01-30 06:34:00,
2013-01-30 00:39:00,53.2,52.0,29.40,SSW,212,2.1,2.1,97,0.06,,,0.07,0,TxWx,2013-01-30 06:39:00,
2013-01-30 00:44:00,53.0,52.0,29.40,SSW,198,0.9,0.9,97,0.12,,,0.08,0,TxWx,2013-01-30 06:44:00,
2013-01-30 00:50:00,52.9,52.0,29.40,SSW,199,1.2,1.2,97,0.12,,,0.08,0,TxWx,2013-01-30 06:50:00,
2013-01-30 00:55:00,52.8,52.0,29.40,SE,130,1.2,1.5,97,0.06,,,0.09,0,TxWx,2013-01-30 06:55:00,
2013-01-30 01:00:00,52.5,51.0,29.39,SE,135,2.4,2.7,97,0.06,,,0.09,0,TxWx,2013-01-30 07:00:00,
2013-01-30 01:05:00,52.6,52.0,29.39,SSE,154,1.5,1.8,97,0.06,,,0.10,0,TxWx,2013-01-30 07:05:00,
2013-01-30 01:10:00,52.4,51.0,29.39,SSE,151,2.7,3.0,97,0.06,,,0.10,0,TxWx,2013-01-30 07:10:00,
2013-01-30 01:15:00,52.2,51.0,29.38,South,169,3.0,3.0,97,0.06,,,0.10,0,TxWx,2013-01-30 07:15:00,
2013-01-30 01:21:00,51.9,51.0,29.37,SE,139,2.4,2.7,97,0.06,,,0.11,0,TxWx,2013-01-30 07:21:00,
2013-01-30 01:26:00,51.8,51.0,29.36,South,175,1.8,1.8,97,0.06,,,0.12,0,TxWx,2013-01-30 07:26:00,
2013-01-30 01:31:00,51.7,51.0,29.36,SSE,158,3.6,4.5,97,0.06,,,0.13,0,TxWx,2013-01-30 07:31:00,
2013-01-30 01:36:00,51.5,51.0,29.36,South,174,2.1,2.1,97,0.06,,,0.13,0,TxWx,2013-01-30 07:36:00,
2013-01-30 01:41:00,51.4,50.0,29.36,South,174,1.5,1.5,97,0.06,,,0.13,0,TxWx,2013-01-30 07:41:00,
2013-01-30 01:46:00,51.2,50.0,29.38,SSW,205,3.0,3.0,98,0.06,,,0.13,0,TxWx,2013-01-30 07:46:00,
2013-01-30 01:51:00,51.2,50.0,29.39,SSW,207,4.8,4.8,98,0.06,,,0.14,0,TxWx,2013-01-30 07:51:00,
2013-01-30 01:57:00,51.2,50.0,29.40,WSW,253,2.7,2.7,98,0.06,,,0.14,0,TxWx,2013-01-30 07:57:00,
2013-01-30 02:02:00,51.4,50.0,29.39,WSW,251,2.1,2.1,98,0.06,,,0.16,0,TxWx,2013-01-30 08:02:00,
2013-01-30 02:07:00,51.6,51.0,29.38,SSW,213,1.8,1.8,98,0.06,,,0.16,0,TxWx,2013-01-30 08:07:00,
2013-01-30 02:12:00,51.6,51.0,29.38,WSW,238,2.4,2.4,98,0.12,,,0.17,0,TxWx,2013-01-30 08:12:00,
2013-01-30 02:17:00,51.6,51.0,29.38,West,268,4.8,5.1,98,0.12,,,0.18,0,TxWx,2013-01-30 08:17:00,
2013-01-30 02:23:00,51.6,51.0,29.38,WSW,243,3.0,3.0,98,0.12,,,0.19,0,TxWx,2013-01-30 08:23:00,
2013-01-30 02:28:00,51.6,51.0,29.39,West,259,4.2,4.8,98,0.12,,,0.20,0,TxWx,2013-01-30 08:28:00,
2013-01-30 02:33:00,51.3,50.0,29.40,WSW,252,4.2,4.5,98,0.06,,,0.20,0,TxWx,2013-01-30 08:33:00,
2013-01-30 02:38:00,51.1,50.0,29.40,West,259,4.8,5.7,98,0.06,,,0.21,0,TxWx,2013-01-30 08:38:00,
2013-01-30 02:44:00,51.1,50.0,29.40,West,274,4.2,4.5,98,0.06,,,0.22,0,TxWx,2013-01-30 08:44:00,
2013-01-30 02:49:00,51.0,50.0,29.39,West,269,4.5,4.5,98,0.06,,,0.23,0,TxWx,2013-01-30 08:49:00,
2013-01-30 02:54:00,51.0,50.0,29.40,West,268,3.6,3.6,98,0.12,,,0.24,0,TxWx,2013-01-30 08:54:00,
2013-01-30 02:59:00,51.1,50.0,29.41,West,275,3.3,3.3,98,0.12,,,0.24,0,TxWx,2013-01-30 08:59:00,
2013-01-30 03:04:00,51.0,50.0,29.41,West,264,5.7,5.7,98,0.12,,,0.25,0,TxWx,2013-01-30 09:04:00,
2013-01-30 03:09:00,50.9,50.0,29.40,WNW,289,3.3,3.6,98,0.12,,,0.26,0,TxWx,2013-01-30 09:09:00,
2013-01-30 03:15:00,51.0,50.0,29.41,West,263,3.3,3.3,98,0.06,,,0.27,0,TxWx,2013-01-30 09:15:00,
2013-01-30 03:20:00,48.1,46.0,29.40,NW,317,8.7,10.8,95,0.06,,,0.27,0,TxWx,2013-01-30 09:20:00,
2013-01-30 03:25:00,44.3,43.0,29.40,NW,305,6.3,6.9,96,0.06,,,0.28,0,TxWx,2013-01-30 09:25:00,
2013-01-30 03:30:00,43.7,43.0,29.41,WNW,303,5.1,5.1,97,0.12,,,0.29,0,TxWx,2013-01-30 09:30:00,
2013-01-30 03:35:00,42.1,41.0,29.40,WNW,300,6.6,7.8,97,0.12,,,0.29,0,TxWx,2013-01-30 09:35:00,
2013-01-30 03:40:00,41.8,41.0,29.40,NW,310,7.5,7.8,97,0.00,,,0.29,0,TxWx,2013-01-30 09:40:00,
2013-01-30 03:46:00,41.2,40.0,29.38,NNW,335,1.8,1.8,98,0.00,,,0.30,0,TxWx,2013-01-30 09:46:00,
2013-01-30 03:51:00,40.5,40.0,29.37,North,355,2.7,3.3,97,0.06,,,0.30,0,TxWx,2013-01-30 09:51:00,
2013-01-30 03:56:00,40.3,39.0,29.36,SSE,161,3.3,3.3,98,0.06,,,0.30,0,TxWx,2013-01-30 09:56:00,
2013-01-30 04:01:00,40.0,39.0,29.36,NNE,22,4.5,4.5,98,0.00,,,0.30,0,TxWx,2013-01-30 10:01:00,
2013-01-30 04:06:00,39.8,39.0,29.35,ENE,57,5.4,6.3,98,0.00,,,0.30,0,TxWx,2013-01-30 10:06:00,
2013-01-30 04:11:00,39.7,39.0,29.34,NNE,31,5.4,6.3,98,0.00,,,0.30,0,TxWx,2013-01-30 10:11:00,
2013-01-30 04:16:00,39.7,39.0,29.32,NE,44,7.2,7.2,98,0.00,,,0.30,0,TxWx,2013-01-30 10:16:00,
2013-01-30 04:22:00,39.7,39.0,29.31,NE,49,3.6,3.6,98,0.00,,,0.30,0,TxWx,2013-01-30 10:22:00,
2013-01-30 04:27:00,39.8,40.0,29.32,NE,42,9.0,9.0,99,0.00,,,0.30,0,TxWx,2013-01-30 10:27:00,
2013-01-30 04:32:00,39.8,39.0,29.31,NE,44,4.8,5.4,98,0.00,,,0.30,0,TxWx,2013-01-30 10:32:00,
2013-01-30 04:37:00,39.8,40.0,29.30,NE,37,5.4,5.4,99,0.00,,,0.30,0,TxWx,2013-01-30 10:37:00,
2013-01-30 04:42:00,39.8,40.0,29.32,NNE,20,7.8,8.4,99,0.00,,,0.30,0,TxWx,2013-01-30 10:42:00,
2013-01-30 04:47:00,40.0,40.0,29.35,West,274,9.0,9.6,99,0.00,,,0.30,0,TxWx,2013-01-30 10:47:00,
2013-01-30 04:53:00,40.0,40.0,29.37,NW,305,11.4,11.4,99,0.00,,,0.30,0,TxWx,2013-01-30 10:53:00,
2013-01-30 04:58:00,39.9,40.0,29.39,NW,308,13.5,13.5,99,0.00,,,0.30,0,TxWx,2013-01-30 10:58:00,
2013-01-30 05:03:00,39.8,40.0,29.40,NW,318,4.2,4.8,99,0.00,,,0.30,0,TxWx,2013-01-30 11:03:00,
2013-01-30 05:08:00,39.5,39.0,29.40,NW,315,6.9,8.4,99,0.00,,,0.30,0,TxWx,2013-01-30 11:08:00,
2013-01-30 05:13:00,39.2,39.0,29.38,NNW,348,8.7,9.0,99,0.00,,,0.30,0,TxWx,2013-01-30 11:13:00,
2013-01-30 05:19:00,39.0,39.0,29.36,NNW,338,3.0,3.6,99,0.00,,,0.30,0,TxWx,2013-01-30 11:19:00,
2013-01-30 05:24:00,39.0,39.0,29.37,NNW,339,3.3,3.3,99,0.00,,,0.30,0,TxWx,2013-01-30 11:24:00,
2013-01-30 05:29:00,39.0,39.0,29.37,North,359,3.6,3.9,99,0.00,,,0.30,0,TxWx,2013-01-30 11:29:00,
2013-01-30 05:34:00,39.1,39.0,29.38,NNW,331,3.9,4.2,99,0.00,,,0.30,0,TxWx,2013-01-30 11:34:00,
2013-01-30 05:39:00,39.1,39.0,29.36,North,1,2.1,2.1,99,0.00,,,0.30,0,TxWx,2013-01-30 11:39:00,
2013-01-30 05:45:00,39.1,39.0,29.34,North,9,3.6,3.9,99,0.00,,,0.30,0,TxWx,2013-01-30 11:45:00,
2013-01-30 05:50:00,39.1,39.0,29.31,NNE,27,7.8,7.8,99,0.00,,,0.30,0,TxWx,2013-01-30 11:50:00,
2013-01-30 05:55:00,39.2,39.0,29.32,NNE,26,8.1,8.1,99,0.00,,,0.30,0,TxWx,2013-01-30 11:55:00,
2013-01-30 06:00:00,39.3,39.0,29.32,NNE,29,6.3,6.3,99,0.00,,,0.31,0,TxWx,2013-01-30 12:00:00,
2013-01-30 06:05:00,39.3,39.0,29.32,NNE,27,6.0,6.3,99,0.06,,,0.31,0,TxWx,2013-01-30 12:05:00,
2013-01-30 06:10:00,39.4,39.0,29.31,North,11,3.6,3.6,99,0.00,,,0.31,0,TxWx,2013-01-30 12:10:00,
2013-01-30 06:15:00,39.4,39.0,29.33,NNW,340,1.8,2.1,99,0.00,,,0.31,0,TxWx,2013-01-30 12:15:00,
2013-01-30 06:20:00,39.4,39.0,29.32,NNE,29,3.6,4.2,99,0.00,,,0.31,0,TxWx,2013-01-30 12:20:00,
2013-01-30 06:25:00,39.3,39.0,29.32,North,11,4.5,4.5,99,0.00,,,0.31,0,TxWx,2013-01-30 12:25:00,
2013-01-30 06:31:00,39.3,39.0,29.32,WNW,298,1.5,1.5,99,0.00,,,0.31,0,TxWx,2013-01-30 12:31:00,
2013-01-30 06:36:00,39.4,39.0,29.33,NNE,20,2.4,2.4,99,0.00,,,0.31,0,TxWx,2013-01-30 12:36:00,
2013-01-30 06:41:00,39.4,39.0,29.32,NW,304,2.4,2.7,99,0.00,,,0.31,0,TxWx,2013-01-30 12:41:00,
2013-01-30 06:46:00,39.4,39.0,29.33,NNW,341,2.4,2.7,99,0.00,,,0.31,0,TxWx,2013-01-30 12:46:00,
2013-01-30 06:51:00,39.5,39.0,29.33,NW,308,3.0,3.0,99,0.00,,,0.31,0,TxWx,2013-01-30 12:51:00,
2013-01-30 06:56:00,39.5,39.0,29.33,NW,311,4.5,4.5,99,0.00,,,0.31,0,TxWx,2013-01-30 12:56:00,
2013-01-30 07:01:00,39.4,39.0,29.33,North,352,2.7,3.6,99,0.00,,,0.31,0,TxWx,2013-01-30 13:01:00,
2013-01-30 07:06:00,39.4,39.0,29.32,NNE,18,1.5,1.5,99,0.00,,,0.32,0,TxWx,2013-01-30 13:06:00,
2013-01-30 07:11:00,39.2,39.0,29.33,NNW,342,0.9,1.2,99,0.06,,,0.32,0,TxWx,2013-01-30 13:11:00,
2013-01-30 07:16:00,39.1,39.0,29.33,NNW,340,3.0,3.9,99,0.06,,,0.32,1,TxWx,2013-01-30 13:16:00,
2013-01-30 07:21:00,39.1,39.0,29.34,WNW,301,3.3,3.6,99,0.00,,,0.32,3,TxWx,2013-01-30 13:21:00,
2013-01-30 07:27:00,39.0,39.0,29.35,NW,305,3.0,3.6,99,0.00,,,0.33,4,TxWx,2013-01-30 13:27:00,
2013-01-30 07:32:00,39.1,39.0,29.36,NW,312,3.9,3.9,99,0.06,,,0.33,3,TxWx,2013-01-30 13:32:00,
2013-01-30 07:37:00,39.3,39.0,29.35,NW,319,2.4,2.7,99,0.06,,,0.33,5,TxWx,2013-01-30 13:37:00,
2013-01-30 07:42:00,39.2,39.0,29.35,NW,309,3.6,3.6,99,0.06,,,0.34,5,TxWx,2013-01-30 13:42:00,
2013-01-30 07:47:00,39.2,39.0,29.36,West,266,4.2,4.2,99,0.06,,,0.34,9,TxWx,2013-01-30 13:47:00,
2013-01-30 07:52:00,39.3,39.0,29.34,NNW,336,0.9,0.9,99,0.00,,,0.34,7,TxWx,2013-01-30 13:52:00,
2013-01-30 07:57:00,39.3,39.0,29.34,NNW,347,2.7,3.3,99,0.00,,,0.34,7,TxWx,2013-01-30 13:57:00,
2013-01-30 08:03:00,39.3,39.0,29.33,North,358,1.8,1.8,99,0.00,,,0.35,10,TxWx,2013-01-30 14:03:00,
2013-01-30 08:08:00,39.2,39.0,29.34,NNE,20,3.3,3.9,99,0.00,,,0.35,9,TxWx,2013-01-30 14:08:00,
2013-01-30 08:13:00,39.2,39.0,29.33,NNE,12,3.6,3.9,99,0.06,,,0.35,7,TxWx,2013-01-30 14:13:00,
2013-01-30 08:18:00,39.3,39.0,29.33,NNE,28,1.2,1.2,99,0.06,,,0.35,7,TxWx,2013-01-30 14:18:00,
2013-01-30 08:24:00,39.1,39.0,29.33,NNE,13,3.6,3.9,99,0.00,,,0.35,18,TxWx,2013-01-30 14:24:00,
2013-01-30 08:29:00,39.3,39.0,29.33,North,6,2.7,2.7,99,0.00,,,0.35,15,TxWx,2013-01-30 14:29:00,
2013-01-30 08:34:00,39.3,39.0,29.33,NNE,17,0.6,0.6,99,0.00,,,0.36,14,TxWx,2013-01-30 14:34:00,
2013-01-30 08:39:00,39.3,39.0,29.34,WSW,246,0.3,0.6,99,0.00,,,0.36,10,TxWx,2013-01-30 14:39:00,
2013-01-30 08:44:00,39.3,39.0,29.33,East,87,0.9,0.9,99,0.06,,,0.36,14,TxWx,2013-01-30 14:44:00,
2013-01-30 08:49:00,39.4,39.0,29.32,NE,44,2.1,2.4,99,0.06,,,0.36,16,TxWx,2013-01-30 14:49:00,
2013-01-30 08:55:00,39.3,39.0,29.32,East,88,1.2,1.2,99,0.00,,,0.36,20,TxWx,2013-01-30 14:55:00,
2013-01-30 09:00:00,39.3,39.0,29.31,NNE,24,1.8,1.8,99,0.00,,,0.36,34,TxWx,2013-01-30 15:00:00,
2013-01-30 09:05:00,39.4,39.0,29.31,North,3,1.5,1.5,99,0.00,,,0.36,51,TxWx,2013-01-30 15:05:00,
2013-01-30 09:10:00,39.5,40.0,29.31,NE,52,1.2,1.5,99,0.00,,,0.36,55,TxWx,2013-01-30 15:10:00,
2013-01-30 09:15:00,39.5,39.0,29.30,East,90,2.1,2.1,99,0.00,,,0.36,66,TxWx,2013-01-30 15:15:00,
2013-01-30 09:20:00,39.5,39.0,29.30,ESE,107,2.4,2.4,99,0.00,,,0.36,77,TxWx,2013-01-30 15:20:00,
2013-01-30 09:25:00,39.6,40.0,29.30,East,86,1.2,1.2,99,0.00,,,0.36,64,TxWx,2013-01-30 15:25:00,
2013-01-30 09:30:00,39.6,40.0,29.31,SE,140,1.2,1.2,99,0.00,,,0.36,50,TxWx,2013-01-30 15:30:00,
2013-01-30 09:36:00,39.6,40.0,29.31,ENE,75,2.7,2.7,99,0.00,,,0.36,61,TxWx,2013-01-30 15:36:00,
2013-01-30 09:41:00,39.6,40.0,29.31,SSE,148,2.4,2.7,99,0.00,,,0.36,57,TxWx,2013-01-30 15:41:00,
2013-01-30 09:46:00,39.7,40.0,29.30,SE,137,3.0,3.0,99,0.00,,,0.36,64,TxWx,2013-01-30 15:46:00,
2013-01-30 09:51:00,39.9,40.0,29.30,South,183,1.8,1.8,99,0.00,,,0.36,66,TxWx,2013-01-30 15:51:00,
2013-01-30 09:57:00,39.9,40.0,29.29,SSE,153,3.6,3.9,99,0.00,,,0.36,65,TxWx,2013-01-30 15:57:00,
2013-01-30 10:02:00,40.2,40.0,29.29,SSE,158,0.6,0.9,99,0.06,,,0.37,61,TxWx,2013-01-30 16:02:00,
2013-01-30 10:07:00,40.1,40.0,29.28,SE,140,1.2,1.2,99,0.06,,,0.37,71,TxWx,2013-01-30 16:07:00,
2013-01-30 10:12:00,40.2,40.0,29.28,NE,35,2.1,2.7,99,0.00,,,0.37,64,TxWx,2013-01-30 16:12:00,
2013-01-30 10:17:00,40.2,40.0,29.27,SSE,147,2.7,3.0,99,0.00,,,0.37,89,TxWx,2013-01-30 16:17:00,
2013-01-30 10:22:00,40.3,40.0,29.27,SE,143,3.0,3.0,99,0.00,,,0.37,99,TxWx,2013-01-30 16:22:00,
2013-01-30 10:28:00,40.8,41.0,29.26,SSE,157,0.9,0.9,99,0.00,,,0.37,122,TxWx,2013-01-30 16:28:00,
2013-01-30 10:33:00,40.8,41.0,29.25,SSE,149,2.4,2.7,99,0.00,,,0.37,102,TxWx,2013-01-30 16:33:00,
2013-01-30 10:38:00,40.9,41.0,29.27,SE,138,1.5,1.8,99,0.00,,,0.37,42,TxWx,2013-01-30 16:38:00,
2013-01-30 10:43:00,41.0,41.0,29.26,South,174,3.3,3.3,99,0.00,,,0.37,57,TxWx,2013-01-30 16:43:00,
2013-01-30 10:48:00,41.3,41.0,29.25,ESE,123,2.7,3.0,99,0.00,,,0.37,61,TxWx,2013-01-30 16:48:00,
2013-01-30 10:53:00,41.3,41.0,29.25,SW,228,3.6,5.1,99,0.00,,,0.37,34,TxWx,2013-01-30 16:53:00,
2013-01-30 10:59:00,41.3,41.0,29.25,SSE,153,5.7,6.0,99,0.00,,,0.37,47,TxWx,2013-01-30 16:59:00,
2013-01-30 11:04:00,41.4,41.0,29.25,SE,138,6.0,6.0,99,0.00,,,0.37,44,TxWx,2013-01-30 17:04:00,
2013-01-30 11:09:00,41.6,42.0,29.25,SSE,151,3.3,3.3,99,0.00,,,0.37,37,TxWx,2013-01-30 17:09:00,
2013-01-30 11:14:00,41.8,42.0,29.25,South,172,6.9,6.9,99,0.00,,,0.37,119,TxWx,2013-01-30 17:14:00,
2013-01-30 11:19:00,42.4,42.0,29.24,South,186,6.3,6.3,99,0.00,,,0.37,59,TxWx,2013-01-30 17:19:00,
2013-01-30 11:24:00,42.7,43.0,29.24,South,180,6.0,6.0,99,0.00,,,0.37,45,TxWx,2013-01-30 17:24:00,
2013-01-30 11:29:00,43.0,43.0,29.23,South,187,2.7,3.0,99,0.00,,,0.37,50,TxWx,2013-01-30 17:29:00,
2013-01-30 11:35:00,43.3,43.0,29.23,SSW,202,7.8,7.8,99,0.00,,,0.37,40,TxWx,2013-01-30 17:35:00,
2013-01-30 11:40:00,44.0,44.0,29.23,South,173,5.4,5.4,99,0.00,,,0.37,46,TxWx,2013-01-30 17:40:00,
2013-01-30 11:45:00,44.6,45.0,29.22,SSW,196,2.1,2.7,99,0.00,,,0.38,52,TxWx,2013-01-30 17:45:00,
2013-01-30 11:50:00,45.4,45.0,29.22,SSW,209,3.3,3.3,99,0.00,,,0.38,32,TxWx,2013-01-30 17:50:00,
2013-01-30 11:55:00,46.2,46.0,29.22,SSW,206,8.7,8.7,99,0.06,,,0.38,48,TxWx,2013-01-30 17:55:00,
2013-01-30 12:00:00,46.9,47.0,29.22,SW,235,9.3,9.3,99,0.00,,,0.38,122,TxWx,2013-01-30 18:00:00,
2013-01-30 12:06:00,47.5,47.0,29.20,West,259,8.4,8.7,99,0.00,,,0.38,111,TxWx,2013-01-30 18:06:00,
2013-01-30 12:11:00,48.2,48.0,29.20,SW,232,7.8,8.4,99,0.00,,,0.38,99,TxWx,2013-01-30 18:11:00,
2013-01-30 12:16:00,48.7,49.0,29.21,SW,236,4.2,4.5,99,0.00,,,0.38,113,TxWx,2013-01-30 18:16:00,
2013-01-30 12:21:00,49.6,49.0,29.21,SW,236,11.1,11.1,98,0.00,,,0.38,169,TxWx,2013-01-30 18:21:00,
2013-01-30 12:26:00,50.1,49.0,29.20,WSW,252,15.6,15.6,96,0.00,,,0.38,181,TxWx,2013-01-30 18:26:00,
2013-01-30 12:31:00,50.1,48.0,29.19,West,277,11.7,11.7,93,0.00,,,0.38,145,TxWx,2013-01-30 18:31:00,
2013-01-30 12:36:00,50.0,47.0,29.19,SW,224,7.2,9.3,90,0.00,,,0.38,66,TxWx,2013-01-30 18:36:00,
2013-01-30 12:41:00,49.3,46.0,29.21,WSW,238,15.3,15.6,90,0.00,,,0.38,72,TxWx,2013-01-30 18:41:00,
2013-01-30 12:46:00,48.8,46.0,29.21,WSW,247,17.7,18.9,90,0.00,,,0.38,92,TxWx,2013-01-30 18:46:00,
2013-01-30 12:51:00,48.5,46.0,29.21,WSW,246,11.7,12.6,90,0.00,,,0.38,108,TxWx,2013-01-30 18:51:00,
2013-01-30 12:56:00,48.2,45.0,29.21,West,265,11.1,12.3,90,0.00,,,0.38,153,TxWx,2013-01-30 18:56:00,
2013-01-30 13:02:00,47.5,44.0,29.20,West,270,16.2,16.2,88,0.00,,,0.38,163,TxWx,2013-01-30 19:02:00,
2013-01-30 13:07:00,46.8,44.0,29.20,SW,223,16.5,23.4,88,0.00,,,0.38,58,TxWx,2013-01-30 19:07:00,
2013-01-30 13:12:00,46.0,43.0,29.20,West,259,10.5,12.3,89,0.00,,,0.38,57,TxWx,2013-01-30 19:12:00,
2013-01-30 13:17:00,44.8,42.0,29.20,West,264,12.6,12.9,89,0.00,,,0.38,40,TxWx,2013-01-30 19:17:00,
2013-01-30 13:22:00,44.0,41.0,29.21,WSW,258,12.9,13.5,89,0.00,,,0.38,88,TxWx,2013-01-30 19:22:00,
2013-01-30 13:28:00,43.5,41.0,29.22,WSW,249,20.7,21.6,88,0.00,,,0.38,72,TxWx,2013-01-30 19:28:00,
2013-01-30 13:33:00,42.8,40.0,29.22,West,273,18.6,19.8,89,0.00,,,0.38,77,TxWx,2013-01-30 19:33:00,
2013-01-30 13:38:00,42.0,39.0,29.23,West,263,17.4,18.6,90,0.00,,,0.38,42,TxWx,2013-01-30 19:38:00,
2013-01-30 13:44:00,41.0,38.0,29.23,West,261,20.4,20.4,90,0.00,,,0.38,49,TxWx,2013-01-30 19:44:00,
2013-01-30 13:49:00,40.5,37.0,29.23,West,264,24.6,25.8,90,0.00,,,0.38,62,TxWx,2013-01-30 19:49:00,
2013-01-30 13:54:00,40.3,37.0,29.23,West,270,16.2,17.4,90,0.00,,,0.38,50,TxWx,2013-01-30 19:54:00,
2013-01-30 13:59:00,40.4,37.0,29.23,WSW,246,7.5,8.1,90,0.00,,,0.38,70,TxWx,2013-01-30 19:59:00,
2013-01-30 14:04:00,40.2,37.0,29.22,WSW,245,18.9,18.9,89,0.00,,,0.38,52,TxWx,2013-01-30 20:04:00,
2013-01-30 14:09:00,40.2,37.0,29.23,SW,235,15.6,15.6,88,0.00,,,0.38,88,TxWx,2013-01-30 20:09:00,
2013-01-30 14:15:00,40.2,36.0,29.24,West,268,12.0,14.1,87,0.00,,,0.38,82,TxWx,2013-01-30 20:15:00,
2013-01-30 14:20:00,40.0,36.0,29.24,WSW,251,30.3,30.3,87,0.00,,,0.38,59,TxWx,2013-01-30 20:20:00,
2013-01-30 14:25:00,39.8,36.0,29.22,West,269,14.1,15.6,87,0.00,,,0.38,83,TxWx,2013-01-30 20:25:00,
2013-01-30 14:30:00,39.6,36.0,29.22,West,281,15.0,16.2,86,0.00,,,0.38,89,TxWx,2013-01-30 20:30:00,
2013-01-30 14:35:00,39.6,36.0,29.22,West,269,14.1,14.1,84,0.00,,,0.38,160,TxWx,2013-01-30 20:35:00,
2013-01-30 14:40:00,39.6,35.0,29.23,West,266,18.3,18.3,83,0.00,,,0.38,118,TxWx,2013-01-30 20:40:00,
2013-01-30 14:46:00,39.7,35.0,29.23,WSW,256,12.6,13.8,83,0.00,,,0.38,106,TxWx,2013-01-30 20:46:00,
2013-01-30 14:51:00,39.7,35.0,29.23,WSW,246,8.1,9.3,83,0.00,,,0.38,94,TxWx,2013-01-30 20:51:00,
2013-01-30 14:56:00,39.8,35.0,29.23,West,264,8.1,8.1,83,0.00,,,0.38,56,TxWx,2013-01-30 20:56:00,
2013-01-30 15:01:00,39.7,35.0,29.23,WSW,239,10.5,10.5,84,0.00,,,0.38,99,TxWx,2013-01-30 21:01:00,
2013-01-30 15:06:00,39.9,35.0,29.25,West,269,14.4,14.4,83,0.00,,,0.38,47,TxWx,2013-01-30 21:06:00,
2013-01-30 15:12:00,40.0,35.0,29.25,WSW,246,7.5,8.4,82,0.00,,,0.38,35,TxWx,2013-01-30 21:12:00,
2013-01-30 15:17:00,39.8,35.0,29.24,WSW,252,9.6,11.1,82,0.00,,,0.38,49,TxWx,2013-01-30 21:17:00,
2013-01-30 15:22:00,39.8,35.0,29.25,SW,236,13.2,13.2,83,0.00,,,0.38,77,TxWx,2013-01-30 21:22:00,
2013-01-30 15:27:00,39.6,35.0,29.25,WNW,283,10.5,10.5,84,0.00,,,0.38,144,TxWx,2013-01-30 21:27:00,
2013-01-30 15:32:00,39.5,36.0,29.24,West,264,11.1,12.0,84,0.00,,,0.38,70,TxWx,2013-01-30 21:32:00,
2013-01-30 15:38:00,39.3,35.0,29.25,West,263,17.7,17.7,85,0.00,,,0.38,44,TxWx,2013-01-30 21:38:00,
2013-01-30 15:43:00,39.2,35.0,29.25,SW,234,6.0,6.3,85,0.00,,,0.38,33,TxWx,2013-01-30 21:43:00,
2013-01-30 15:48:00,39.3,35.0,29.25,West,280,9.0,10.5,85,0.00,,,0.38,19,TxWx,2013-01-30 21:48:00,
2013-01-30 15:53:00,39.2,35.0,29.24,West,272,8.4,8.7,85,0.00,,,0.38,11,TxWx,2013-01-30 21:53:00,
2013-01-30 15:59:00,39.2,35.0,29.24,West,260,15.3,15.3,85,0.00,,,0.38,15,TxWx,2013-01-30 21:59:00,
2013-01-30 16:04:00,36.6,33.0,29.26,WNW,299,7.8,8.7,84,0.00,,,0.38,8,TxWx,2013-01-30 22:04:00,
2013-01-30 16:09:00,34.7,31.0,29.27,North,358,13.2,13.2,88,0.00,,,0.38,4,TxWx,2013-01-30 22:09:00,
2013-01-30 16:15:00,34.0,30.0,29.27,NNW,330,9.6,9.6,90,0.00,,,0.38,4,TxWx,2013-01-30 22:15:00,
2013-01-30 16:20:00,33.6,31.0,29.27,NW,323,4.2,5.1,91,0.00,,,0.38,5,TxWx,2013-01-30 22:20:00,
2013-01-30 16:25:00,33.0,30.0,29.28,NNW,328,9.9,9.9,91,0.00,,,0.38,4,TxWx,2013-01-30 22:25:00,
2013-01-30 16:31:00,32.5,30.0,29.29,NW,308,8.4,9.9,92,0.00,,,0.38,6,TxWx,2013-01-30 22:31:00,
2013-01-30 16:36:00,32.3,29.0,29.29,NW,311,3.0,3.9,94,0.00,,,0.38,3,TxWx,2013-01-30 22:36:00,
2013-01-30 16:41:00,32.0,29.0,29.30,NW,310,4.5,5.7,94,0.00,,,0.38,2,TxWx,2013-01-30 22:41:00,
2013-01-30 16:46:00,31.6,30.0,29.30,NNW,344,7.8,9.3,95,0.00,,,0.38,1,TxWx,2013-01-30 22:46:00,
2013-01-30 16:52:00,31.5,29.0,29.31,WNW,294,3.6,4.5,95,0.00,,,0.38,1,TxWx,2013-01-30 22:52:00,
2013-01-30 16:57:00,31.2,28.0,29.32,WNW,301,6.6,7.5,94,0.00,,,0.38,0,TxWx,2013-01-30 22:57:00,
2013-01-30 17:02:00,31.0,28.0,29.31,NW,322,5.7,6.6,94,0.00,,,0.38,0,TxWx,2013-01-30 23:02:00,
2013-01-30 17:07:00,30.9,28.0,29.32,NW,310,12.3,12.3,94,0.00,,,0.38,0,TxWx,2013-01-30 23:07:00,
2013-01-30 17:13:00,30.9,28.0,29.32,West,279,8.4,8.7,93,0.00,,,0.38,0,TxWx,2013-01-30 23:13:00,
2013-01-30 17:18:00,30.9,28.0,29.33,NW,323,8.4,10.5,92,0.00,,,0.38,0,TxWx,2013-01-30 23:18:00,
2013-01-30 17:23:00,30.8,28.0,29.33,NW,326,9.9,10.8,92,0.00,,,0.38,0,TxWx,2013-01-30 23:23:00,
2013-01-30 17:29:00,30.6,27.0,29.34,West,279,6.0,6.0,90,0.00,,,0.38,0,TxWx,2013-01-30 23:29:00,
2013-01-30 17:34:00,30.5,28.0,29.35,NW,308,9.6,9.6,91,0.00,,,0.38,0,TxWx,2013-01-30 23:34:00,
2013-01-30 17:39:00,30.5,27.0,29.35,NW,306,6.9,6.9,91,0.00,,,0.38,0,TxWx,2013-01-30 23:39:00,
2013-01-30 17:44:00,30.5,27.0,29.35,NW,312,9.9,11.1,91,0.00,,,0.38,0,TxWx,2013-01-30 23:44:00,
2013-01-30 17:49:00,30.6,27.0,29.35,WNW,283,3.9,3.9,90,0.00,,,0.38,0,TxWx,2013-01-30 23:49:00,
2013-01-30 17:55:00,30.8,28.0,29.35,NNW,346,3.6,3.6,91,0.00,,,0.38,0,TxWx,2013-01-30 23:55:00,
2013-01-30 18:00:00,30.9,27.0,29.36,West,281,12.6,12.6,89,0.00,,,0.38,0,TxWx,2013-01-31 00:00:00,
2013-01-30 18:05:00,30.9,26.0,29.37,WNW,301,6.3,7.2,87,0.00,,,0.38,0,TxWx,2013-01-31 00:05:00,
2013-01-30 18:10:00,30.9,27.0,29.37,WNW,299,5.4,5.4,87,0.00,,,0.38,0,TxWx,2013-01-31 00:10:00,
2013-01-30 18:15:00,30.9,27.0,29.38,WNW,286,5.7,6.3,88,0.00,,,0.38,0,TxWx,2013-01-31 00:15:00,
2013-01-30 18:21:00,30.9,27.0,29.39,West,273,6.9,7.2,88,0.00,,,0.38,0,TxWx,2013-01-31 00:21:00,
2013-01-30 18:26:00,30.7,26.0,29.39,WNW,303,16.5,16.5,85,0.00,,,0.38,0,TxWx,2013-01-31 00:26:00,
2013-01-30 18:31:00,30.7,26.0,29.40,NNW,332,5.1,5.1,85,0.00,,,0.38,0,TxWx,2013-01-31 00:31:00,
2013-01-30 18:36:00,30.5,26.0,29.40,NW,319,5.7,6.6,85,0.00,,,0.38,0,TxWx,2013-01-31 00:36:00,
2013-01-30 18:41:00,30.4,25.0,29.40,NNW,335,12.6,12.6,86,0.00,,,0.38,0,TxWx,2013-01-31 00:41:00,
2013-01-30 18:47:00,30.3,25.0,29.40,NW,316,4.2,4.2,87,0.00,,,0.38,0,TxWx,2013-01-31 00:47:00,
2013-01-30 18:52:00,30.2,25.0,29.40,NW,307,17.4,17.7,87,0.00,,,0.38,0,TxWx,2013-01-31 00:52:00,
2013-01-30 18:57:00,30.1,25.0,29.41,NNW,333,5.7,6.0,86,0.00,,,0.38,0,TxWx,2013-01-31 00:57:00,
2013-01-30 19:02:00,30.1,25.0,29.41,NW,311,2.7,3.0,86,0.00,,,0.38,0,TxWx,2013-01-31 01:02:00,
2013-01-30 19:07:00,29.9,25.0,29.41,West,277,11.4,11.7,87,0.00,,,0.38,0,TxWx,2013-01-31 01:07:00,
2013-01-30 19:12:00,29.9,26.0,29.42,WNW,294,5.7,7.8,88,0.00,,,0.38,0,TxWx,2013-01-31 01:12:00,
2013-01-30 19:17:00,29.8,26.0,29.42,NW,320,9.6,9.6,88,0.00,,,0.38,0,TxWx,2013-01-31 01:17:00,
2013-01-30 19:22:00,29.8,25.0,29.42,NW,310,7.5,7.5,87,0.00,,,0.38,0,TxWx,2013-01-31 01:22:00,
2013-01-30 19:28:00,29.9,25.0,29.42,NNW,345,6.0,6.0,86,0.00,,,0.38,0,TxWx,2013-01-31 01:28:00,
2013-01-30 19:33:00,30.0,25.0,29.42,NNW,348,9.6,13.5,84,0.00,,,0.38,0,TxWx,2013-01-31 01:33:00,
2013-01-30 19:38:00,30.0,24.0,29.42,NW,322,11.1,11.7,83,0.00,,,0.38,0,TxWx,2013-01-31 01:38:00,
2013-01-30 19:43:00,30.1,24.0,29.42,NNW,328,5.1,7.8,83,0.00,,,0.38,0,TxWx,2013-01-31 01:43:00,
2013-01-30 19:48:00,30.1,25.0,29.42,West,276,4.8,5.1,84,0.00,,,0.38,0,TxWx,2013-01-31 01:48:00,
2013-01-30 19:53:00,30.1,24.0,29.43,NW,306,5.1,8.1,83,0.00,,,0.38,0,TxWx,2013-01-31 01:53:00,
2013-01-30 19:58:00,30.1,24.0,29.43,NW,313,10.2,10.2,82,0.00,,,0.38,0,TxWx,2013-01-31 01:58:00,
2013-01-30 20:04:00,30.1,24.0,29.43,NW,317,8.4,8.4,83,0.00,,,0.38,0,TxWx,2013-01-31 02:04:00,
2013-01-30 20:09:00,29.9,25.0,29.43,West,278,8.7,8.7,84,0.00,,,0.38,0,TxWx,2013-01-31 02:09:00,
2013-01-30 20:14:00,29.8,25.0,29.43,SW,224,5.1,5.1,84,0.00,,,0.38,0,TxWx,2013-01-31 02:14:00,
2013-01-30 20:19:00,29.2,24.0,29.43,WNW,292,11.4,13.8,84,0.00,,,0.38,0,TxWx,2013-01-31 02:19:00,
2013-01-30 20:24:00,29.0,24.0,29.44,NW,304,16.2,18.0,84,0.00,,,0.38,0,TxWx,2013-01-31 02:24:00,
2013-01-30 20:30:00,28.9,23.0,29.44,WNW,296,6.9,6.9,83,0.00,,,0.38,0,TxWx,2013-01-31 02:30:00,
2013-01-30 20:35:00,28.9,23.0,29.45,WSW,257,9.6,9.6,82,0.00,,,0.38,0,TxWx,2013-01-31 02:35:00,
2013-01-30 20:40:00,28.7,23.0,29.45,WNW,282,18.3,24.3,82,0.00,,,0.38,0,TxWx,2013-01-31 02:40:00,
2013-01-30 20:45:00,28.6,23.0,29.46,WNW,288,15.9,18.0,81,0.00,,,0.38,0,TxWx,2013-01-31 02:45:00,
2013-01-30 20:50:00,28.4,22.0,29.46,NW,306,23.1,23.1,82,0.00,,,0.38,0,TxWx,2013-01-31 02:50:00,
2013-01-30 20:56:00,28.5,22.0,29.47,WNW,285,10.5,10.5,82,0.00,,,0.38,0,TxWx,2013-01-31 02:56:00,
2013-01-30 21:01:00,28.5,22.0,29.47,West,275,6.9,6.9,82,0.00,,,0.38,0,TxWx,2013-01-31 03:01:00,
2013-01-30 21:06:00,28.3,22.0,29.47,WNW,296,10.8,10.8,83,0.00,,,0.38,0,TxWx,2013-01-31 03:06:00,
2013-01-30 21:11:00,28.2,23.0,29.47,West,273,12.9,12.9,84,0.00,,,0.38,0,TxWx,2013-01-31 03:11:00,
2013-01-30 21:16:00,28.0,23.0,29.48,NW,307,14.7,17.1,86,0.00,,,0.38,0,TxWx,2013-01-31 03:16:00,
2013-01-30 21:21:00,27.9,23.0,29.48,NW,304,12.9,12.9,87,0.00,,,0.38,0,TxWx,2013-01-31 03:21:00,
2013-01-30 21:26:00,27.5,23.0,29.49,WNW,289,10.2,12.6,86,0.00,,,0.38,0,TxWx,2013-01-31 03:26:00,
2013-01-30 21:32:00,27.1,22.0,29.49,WSW,244,15.0,15.0,85,0.00,,,0.38,0,TxWx,2013-01-31 03:32:00,
2013-01-30 21:37:00,26.4,21.0,29.49,West,270,18.6,24.3,85,0.00,,,0.38,0,TxWx,2013-01-31 03:37:00,
2013-01-30 21:42:00,26.1,21.0,29.50,West,276,19.2,24.9,85,0.00,,,0.38,0,TxWx,2013-01-31 03:42:00,
2013-01-30 21:47:00,26.3,21.0,29.50,WSW,252,12.0,12.0,85,0.00,,,0.38,0,TxWx,2013-01-31 03:47:00,
2013-01-30 21:53:00,26.2,21.0,29.50,West,270,14.1,14.1,83,0.00,,,0.38,0,TxWx,2013-01-31 03:53:00,
2013-01-30 21:58:00,26.2,20.0,29.51,West,281,9.6,10.5,83,0.00,,,0.38,0,TxWx,2013-01-31 03:58:00,
2013-01-30 22:03:00,26.2,20.0,29.51,NW,307,7.8,8.1,82,0.00,,,0.38,0,TxWx,2013-01-31 04:03:00,
2013-01-30 22:08:00,25.9,20.0,29.52,West,275,13.5,14.1,80,0.00,,,0.38,0,TxWx,2013-01-31 04:08:00,
2013-01-30 22:13:00,26.0,19.0,29.52,NW,309,18.9,18.9,79,0.00,,,0.38,0,TxWx,2013-01-31 04:13:00,
2013-01-30 22:18:00,25.6,19.0,29.53,WNW,303,6.0,6.0,79,0.00,,,0.38,0,TxWx,2013-01-31 04:18:00,
2013-01-30 22:23:00,25.4,18.0,29.53,West,260,10.8,15.3,78,0.00,,,0.38,0,TxWx,2013-01-31 04:23:00,
2013-01-30 22:28:00,25.3,18.0,29.53,WNW,301,13.8,17.1,78,0.00,,,0.38,0,TxWx,2013-01-31 04:28:00,
2013-01-30 22:33:00,25.3,18.0,29.54,West,261,9.9,10.8,78,0.00,,,0.38,0,TxWx,2013-01-31 04:33:00,
2013-01-30 22:39:00,25.2,18.0,29.54,West,280,4.5,4.5,79,0.00,,,0.38,0,TxWx,2013-01-31 04:39:00,
2013-01-30 22:44:00,24.8,19.0,29.54,West,274,13.8,13.8,80,0.00,,,0.38,0,TxWx,2013-01-31 04:44:00,
2013-01-30 22:49:00,24.5,19.0,29.55,WNW,295,9.3,16.5,80,0.00,,,0.38,0,TxWx,2013-01-31 04:49:00,
2013-01-30 22:54:00,24.2,18.0,29.55,WNW,283,19.2,19.2,80,0.00,,,0.38,0,TxWx,2013-01-31 04:54:00,
2013-01-30 22:59:00,24.1,18.0,29.56,WSW,251,7.2,7.2,81,0.00,,,0.38,0,TxWx,2013-01-31 04:59:00,
2013-01-30 23:00:00,24.2,18.0,29.56,NW,323,4.8,5.7,81,0.00,,,0.38,0,TxWx,2013-01-31 05:00:00,
2013-01-30 23:01:00,24.1,18.0,29.56,West,276,8.7,10.5,81,0.00,,,0.38,0,TxWx,2013-01-31 05:01:00,
2013-01-30 23:02:00,24.1,18.0,29.56,WNW,286,7.8,7.8,81,0.00,,,0.38,0,TxWx,2013-01-31 05:02:00,
2013-01-30 23:07:00,24.1,18.0,29.56,WNW,301,6.6,7.5,82,0.00,,,0.38,0,TxWx,2013-01-31 05:07:00,
2013-01-30 23:13:00,24.0,18.0,29.56,NW,321,21.0,21.0,80,0.00,,,0.38,0,TxWx,2013-01-31 05:13:00,
2013-01-30 23:18:00,23.9,17.0,29.57,NW,318,18.0,18.0,79,0.00,,,0.38,0,TxWx,2013-01-31 05:18:00,
2013-01-30 23:23:00,24.0,17.0,29.57,WNW,286,11.4,11.4,77,0.00,,,0.38,0,TxWx,2013-01-31 05:23:00,
2013-01-30 23:28:00,23.9,17.0,29.57,West,280,7.5,7.5,77,0.00,,,0.38,0,TxWx,2013-01-31 05:28:00,
2013-01-30 23:33:00,23.9,17.0,29.58,West,264,5.7,7.5,78,0.00,,,0.38,0,TxWx,2013-01-31 05:33:00,
2013-01-30 23:38:00,23.6,17.0,29.58,WNW,299,8.1,8.1,79,0.00,,,0.38,0,TxWx,2013-01-31 05:38:00,
2013-01-30 23:43:00,23.5,17.0,29.58,WSW,250,12.0,15.9,80,0.00,,,0.38,0,TxWx,2013-01-31 05:43:00,
2013-01-30 23:48:00,23.5,17.0,29.59,NW,322,7.2,7.5,80,0.00,,,0.38,0,TxWx,2013-01-31 05:48:00,
2013-01-30 23:54:00,23.4,17.0,29.59,WNW,301,7.8,8.1,82,0.00,,,0.38,0,TxWx,2013-01-31 05:54:00,
2013-01-30 23:59:00,23.0,16.0,29.59,WSW,252,18.6,20.4,79,0.00,,,0.38,0,TxWx,2013-01-31 05:59:00,